AirNav   ATP
 
 988 users online  

3D8 Bordner Airport
Bowling Green, Ohio, USA

GOING TO BOWLING GREEN?


FAA INFORMATION EFFECTIVE 08 NOVEMBER 2018

Location

FAA Identifier: 3D8
Lat/Long: 41-20-09.6000N / 083-43-23.5000W
41-20.160000N / 083-43.391667W
41.3360000 / -83.7231944
(estimated)
Elevation: 690 ft. / 210 m (estimated)
Variation: 05W (1985)
From city: 4 miles SW of BOWLING GREEN, OH
Time zone: UTC -5 (UTC -4 during Daylight Saving Time)
Zip code: 43569

Airport Operations

Airport use: Open to the public
Activation date: 11/1960
Control tower: no
ARTCC: CLEVELAND CENTER
FSS: CLEVELAND FLIGHT SERVICE STATION
NOTAMs facility: CLE (NOTAM-D service available)
Attendance: UNATNDD
Wind indicator: yes
Segmented circle: no
Lights: NSTD SOLAR LIGHTS.

Airport Communications

CTAF: 122.9
WX AWOS-3 at 1G0 (5 nm NE): 120.725 (419-354-1415)
WX ASOS at TOL (16 nm N): PHONE 419-865-6924
WX AWOS-3 at FZI (17 nm SE): 124.625 (419-436-0053)
WX ASOS at TDZ (17 nm NE): 121.575 (419-838-5034)
WX ASOS at FDY (20 nm S): 132.85 (419-427-8524)

Nearby radio navigation aids

VOR radial/distance  VOR name  Freq  Var
VWVr211/7.9WATERVILLE VOR/DME113.1002W
FBCr006/22.9FLAG CITY VORTAC108.2002W

 
NDB name  Hdg/Dist  Freq  Var  ID
TIFFIN307/27.126905WTII - .. ..
ADRIAN160/35.827806WADG .- -.. --.
PORT CLINTON261/40.042307WPCW .--. -.-. .--

Airport Services

Runway Information

Runway 9/27

Dimensions: 2623 x 30 ft. / 799 x 9 m
Surface: turf, in fair condition
Weight bearing capacity: 
Single wheel: 5.0
Runway edge lights: low intensity
RUNWAY 9  RUNWAY 27
Latitude: 41-20.164743N41-20.153838N
Longitude: 083-43.677917W083-43.105080W
Elevation: 684.5 ft.689.5 ft.
Gradient: 0.2%0.2%
Traffic pattern: rightleft
Runway heading: 096 magnetic, 091 true276 magnetic, 271 true
Runway end identifier lights: nono
Obstructions: 29 ft. pline, marked, 48 ft. from runway, 1:1 slope to clear15 ft. brush, 45 ft. right of centerline

Airport Ownership and Management from official FAA records

Ownership: Privately-owned
Owner: BERNIE STEINBAUGH
16662 HODGMAN RD
WESTON, OH 43569
Phone 419-353-4732
Manager: BERNIE STEINBAUGH
16662 HODGMAN RD
WESTON, OH 43569
Phone 419-353-4732

Airport Operational Statistics

Aircraft based on the field: 3
Single engine airplanes: 3
    

Additional Remarks

LNDG AREA TURF AND ASPH WITH GRASS GROWING INTO SOME OF THE ASPH. LAND AT OWN RISK. W 540 FT. TURF, THEN 800 FT TURF/ASPH, THEN 615 FT ASPH/GRAVEL, THEN E 660 FT TURF/ASPH. E 50 FT UNUSABLE BROKEN ASPH, GRAVEL, RUTS, POTHOLES.
RWY CLSD INDFLY.

Instrument Procedures

There are no published instrument procedures at 3D8.

Some nearby airports with instrument procedures:

1G0 - Wood County Airport (5 nm NE)
KTOL - Toledo Express Airport (16 nm N)
7W5 - Henry County Airport (16 nm W)
KFZI - Fostoria Metropolitan Airport (17 nm SE)
KTDZ - Toledo Executive Airport (17 nm NE)
KFDY - Findlay Airport (20 nm S)
 
Loc | Ops | Rwys | IFR | FBO | Links
Com | Nav | Svcs | Stats | Notes


 
Area around 3D8 (Bordner Airport)
 
Road maps at: MapQuest Bing Google
 
Aerial photo
WARNING: Photo may not be current or correct
Aerial photo of 3D8 (Bordner Airport)
Do you have a better or more recent aerial photo of Bordner Airport that you would like to share? If so, please send us your photo.

 
Sectional chart

 
Airport distance calculator
Flying to Bordner Airport? Find the distance to fly.

From to 3D8

Sunrise and sunset
Times for 20-Nov-2018
 Local
(UTC-5)
 Zulu
(UTC)
Morning civil twilight07:0012:00
Sunrise07:3012:30
Sunset17:1122:11
Evening civil twilight17:4122:41

Current date and time
Zulu (UTC)  21-Nov-2018 00:21:50
Local (UTC-5)  20-Nov-2018 19:21:50
 
METAR
KTOL 
15nm N 
202352Z 18005KT 10SM SCT042 M01/M07 A3012 RMK AO2 SLP208 T10061067 10022 21006 56011 $
KTDZ 
18nm NE 
202353Z AUTO 20005KT 10SM FEW045 M02/M05 A3015 RMK AO2 SLP215 T10171050 10017 21017 56007
KFDY 
19nm S 
202353Z AUTO 21007KT 10SM BKN037 01/M02 A3014 RMK AO2 SLP211 T00061022 10022 20000 58005
KOWX 
21nm SW 
202355Z AUTO 22006KT 10SM BKN040 00/M02 A3017 RMK AO1
KDUH 
24nm N 
202355Z AUTO 19003KT 10SM BKN042 00/M06 A3013 RMK AO2 T10051062 10025 21005
KUSE 
24nm NW 
202350Z AUTO 20005KT 10SM OVC041 M01/M03 A3012 RMK AO2
TAF
KTOL 
15nm N 
201726Z 2018/2118 31007KT P6SM FEW250 FM210100 23006KT P6SM BKN040 FM211200 25012KT P6SM OVC030
KFDY 
19nm S 
201726Z 2018/2118 31008KT P6SM SCT060 FM210700 24015KT P6SM BKN110 FM211300 25012KT P6SM OVC030
NOTAMs
Click for the latest NOTAMs
NOTAMs are issued by the DoD/FAA and will open in a separate window not controlled by AirNav.

 

 
 

Would you like to see your business listed on this page?

 If your business provides an interesting product or service to pilots, flight crews, aircraft, or users of the Bordner Airport, you should consider listing it here.  To start the listing process, click on the button below
 
Add a business
 

Other Pages about Bordner Airport

Update a link
 
Copyright © AirNav, LLC. All rights reserved. Privacy Policy  Contact